Wind_Speed
21 21 22 22 21 20 19 19 18 17 16 16 15 13 11 9 8 8 8 8 8 8 8 8 9 9 10 10 10 9 8 8 7 7 8 7 7 6 5 5 5 5
21 21 21 22 22 22 21 21 19 18 18 18 17 14 12 10 9 10 9 9 9 9 9 9 10 10 10 11 11 9 8 8 7 7 8 8 7 6 5 5 6 6
21 21 21 21 22 22 22 21 20 19 19 19 18 16 14 12 12 12 11 10 11 11 10 10 11 11 11 11 11 10 8 8 7 8 8 7 7 5 4 6 7 7
21 21 21 22 22 22 22 21 20 20 20 20 20 19 16 14 14 13 12 12 12 12 12 12 12 12 12 12 12 10 9 8 8 8 9 8 7 6 5 7 9 9
21 21 21 21 22 22 22 21 21 22 21 21 21 20 18 16 15 15 14 14 14 14 13 13 13 13 13 13 12 11 10 9 8 9 9 9 8 7 7 8 9 10
20 20 20 20 21 21 21 21 22 22 22 22 21 20 19 18 16 16 16 15 15 16 15 15 15 14 14 14 13 13 12 10 9 9 10 10 9 9 9 10 9 9
20 20 20 20 20 21 20 21 22 22 22 22 21 20 20 19 18 18 17 17 17 17 17 16 16 16 15 15 14 14 14 12 10 10 10 10 10 9 9 9 8 9
21 20 20 20 20 20 20 21 21 21 22 22 21 20 19 19 19 19 19 18 18 19 18 18 17 17 17 16 15 15 15 14 12 10 10 9 9 9 8 7 7 9
21 21 20 20 20 20 21 22 22 22 23 23 22 21 20 19 19 19 19 19 19 20 20 19 18 19 18 17 17 17 16 15 13 11 10 9 9 9 9 8 7 9
21 21 21 21 21 21 22 23 24 24 24 24 24 23 21 20 21 21 21 21 21 21 21 20 20 20 20 19 19 18 18 17 15 13 11 10 10 10 11 10 8 8
21 21 21 20 21 22 23 24 25 25 25 25 25 24 23 22 22 22 22 22 22 22 22 21 21 22 21 21 20 19 19 19 17 15 13 12 11 12 13 13 10 9
20 20 19 20 21 22 23 25 25 25 25 25 25 25 25 24 23 23 22 22 23 23 22 22 22 23 23 22 21 20 20 20 19 18 16 14 13 13 14 14 12 11
19 19 19 20 21 22 23 24 24 24 24 24 24 24 24 23 23 23 22 22 23 22 21 22 23 23 23 23 22 20 20 21 21 20 19 17 15 15 15 15 14 13
20 20 20 21 21 21 21 21 21 21 21 21 22 21 21 21 21 21 21 21 21 21 21 22 23 23 23 23 22 21 20 21 22 22 22 20 18 16 16 16 16 15
22 21 21 21 20 19 18 18 17 17 18 18 18 18 18 18 18 18 18 18 19 19 20 21 21 22 22 22 22 21 21 22 23 24 24 23 20 18 17 17 17 16
23 22 21 20 19 17 16 15 14 14 13 13 13 14 13 13 14 14 14 15 16 17 19 20 20 20 21 22 22 22 22 23 24 25 25 25 23 21 19 18 19 18
22 21 21 19 18 16 15 14 13 11 10 10 10 9 7 7 8 9 10 12 14 16 18 19 18 19 20 22 23 23 24 25 25 25 26 26 25 23 21 20 20 20
22 21 20 19 18 17 16 15 14 13 11 10 9 7 6 6 6 6 7 9 11 13 15 17 18 18 20 22 23 24 25 26 27 27 27 27 26 24 24 22 21 21
21 21 20 20 19 18 18 18 16 14 12 10 9 8 8 7 7 7 7 7 8 10 12 13 15 16 18 21 24 26 27 28 28 28 28 28 27 26 26 25 24 23
21 21 20 20 20 20 20 18 16 14 13 12 11 11 10 10 10 10 10 10 10 11 11 12 13 13 15 18 21 24 26 28 28 28 28 28 27 27 27 26 26 26
22 21 21 21 21 21 20 18 17 15 14 14 14 14 14 14 15 15 15 14 14 14 14 14 14 15 16 17 19 21 23 25 26 27 28 28 28 28 28 28 28 28
23 22 23 22 22 22 21 20 19 18 18 18 19 19 19 20 20 20 20 20 20 20 19 19 19 19 20 21 23 24 25 26 26 26 26 26 26 27 27 28 30 30
24 24 24 24 23 23 23 23 23 22 23 23 23 24 24 24 24 25 26 26 26 26 26 26 25 25 25 25 27 29 30 30 30 30 29 27 27 26 26 27 29 30
26 27 27 26 26 26 26 26 27 26 26 27 28 29 28 28 29 30 31 31 30 31 31 31 31 31 30 30 31 33 35 35 34 34 33 32 31 30 28 28 30 31
29 29 29 29 28 28 29 29 29 29 30 31 32 33 33 34 34 33 33 34 34 35 35 36 36 36 35 35 36 37 38 40 40 39 38 37 36 35 33 33 34 35
30 30 31 30 29 30 30 31 31 32 34 36 36 36 37 37 37 36 35 36 37 37 38 38 39 40 39 38 38 40 41 43 45 45 43 41 40 39 38 39 40 40
Wind_Direction
202 202 202 206 213 217 221 223 224 225 226 230 235 238 244 247 251 265 283 301 308 305 293 276 264 266 274 280 288 291 292 304 314 315 315 317 322 332 343 356 2 360
206 206 207 210 215 219 223 226 228 228 229 233 237 241 244 244 245 259 276 291 299 298 288 273 263 264 272 278 283 285 284 295 307 309 310 315 323 334 353 12 18 16
210 211 212 214 218 221 225 228 230 231 231 234 239 242 242 241 242 254 269 281 291 293 285 271 262 261 268 276 279 278 276 285 298 303 305 311 320 329 351 7 7 8
215 215 216 219 222 225 228 231 232 234 234 235 237 241 244 243 242 249 263 274 284 290 285 273 262 259 264 273 276 272 268 274 289 297 301 306 313 320 333 347 355 360
221 221 221 223 226 229 232 235 236 238 238 237 238 241 244 245 244 248 258 269 278 286 285 274 263 258 260 267 273 268 262 265 279 291 297 302 309 316 320 328 342 353
229 229 228 229 231 234 236 238 239 241 242 242 242 242 245 246 247 248 254 263 273 282 284 276 264 257 256 261 268 265 259 259 269 282 291 298 307 315 316 319 329 344
236 236 236 236 236 238 240 242 243 245 246 247 247 246 247 248 248 248 251 260 271 279 282 276 265 256 254 257 264 262 257 255 261 272 284 297 307 315 318 320 325 334
239 240 241 243 243 245 246 246 248 249 250 251 252 250 248 248 248 248 251 258 267 275 279 275 264 256 252 254 260 261 256 253 256 264 278 294 306 315 321 324 329 331
240 242 245 247 248 249 249 249 249 249 250 252 253 252 250 250 251 250 252 257 264 271 276 273 264 255 251 251 255 259 256 253 253 258 270 286 298 307 313 318 329 334
239 241 243 245 247 248 249 250 250 249 250 250 251 252 251 251 252 253 255 259 264 268 272 270 262 254 249 247 251 256 256 254 252 254 261 271 284 295 301 307 319 331
237 240 242 243 244 245 247 249 251 251 252 251 251 251 251 250 250 252 255 259 261 264 265 264 259 252 247 245 248 254 256 254 253 253 256 263 273 284 291 298 308 318
239 240 241 242 244 246 248 250 251 252 252 252 252 251 250 249 249 251 253 256 259 261 260 258 254 250 246 245 247 254 258 256 254 253 254 259 268 277 285 293 302 309
241 240 240 243 246 248 250 251 252 252 251 251 250 249 249 248 249 250 252 254 256 256 254 252 250 247 246 246 248 255 259 259 256 254 254 256 263 271 278 286 296 304
235 237 241 246 249 251 252 253 252 251 249 247 246 246 246 246 246 248 249 249 250 250 248 248 247 246 247 248 251 257 262 261 258 256 255 254 258 266 272 278 288 297
231 236 241 245 249 250 250 248 246 243 241 241 242 243 243 244 245 245 245 243 244 245 246 246 246 247 248 250 253 259 263 262 260 258 256 254 255 261 268 273 279 288
232 237 241 244 244 242 239 237 234 231 230 230 232 234 237 240 241 242 242 243 244 246 247 247 248 248 249 251 254 259 263 264 263 261 259 257 254 258 265 270 274 280
234 238 240 240 237 234 231 227 222 215 212 211 213 218 225 233 239 243 245 245 246 248 250 251 251 250 250 252 256 260 263 266 267 265 263 261 258 257 262 267 271 274
233 236 236 235 233 230 227 224 220 213 207 206 207 213 223 233 240 248 252 251 251 253 254 254 254 251 251 254 258 263 266 268 269 268 267 266 264 261 261 264 268 271
230 232 232 232 232 231 229 229 228 225 220 219 220 228 237 242 245 250 255 258 260 261 263 263 261 258 256 257 260 264 267 269 270 270 270 270 269 268 266 265 267 269
228 230 232 232 232 232 233 236 238 237 236 237 240 246 253 257 259 259 257 258 261 265 269 274 276 275 272 269 268 268 269 270 270 270 270 271 271 272 272 270 268 268
229 231 233 233 234 235 237 240 244 246 248 251 255 258 262 264 265 264 263 263 264 263 265 271 276 278 278 278 278 277 276 276 276 275 274 274 274 274 274 273 272 269
231 233 235 235 236 238 240 244 250 253 256 258 259 261 263 265 266 267 267 266 265 263 264 265 268 269 271 274 276 276 276 277 278 280 280 279 278 278 277 275 275 274
234 233 235 236 239 241 244 249 252 255 256 258 260 262 263 263 264 265 265 263 262 262 263 262 262 262 263 265 268 270 271 273 275 276 278 279 280 279 279 279 279 280
237 236 235 236 238 241 244 247 250 253 256 258 261 262 262 261 260 259 260 261 262 262 262 260 259 259 259 260 262 265 267 269 271 272 273 275 276 277 278 279 280 280
239 240 241 242 242 242 242 244 247 249 252 254 255 256 256 255 254 252 253 256 258 259 259 259 259 259 258 258 260 263 266 267 268 270 270 271 272 274 275 275 275 275
247 247 248 249 248 245 243 244 245 248 251 252 252 253 253 253 253 252 252 253 255 257 259 260 261 262 261 260 259 259 262 265 266 267 268 268 269 271 271 270 270 271
Height
5923 5925 5926 5927 5928 5929 5930 5931 5932 5933 5934 5934 5935 5936 5937 5938 5938 5938 5938 5938 5938 5938 5938 5938 5938 5938 5938 5938 5939 5939 5939 5939 5938 5937 5937 5936 5935 5935 5934 5933 5932 5931
5922 5923 5924 5925 5926 5927 5928 5929 5930 5931 5932 5933 5933 5934 5935 5936 5937 5937 5937 5937 5937 5937 5937 5937 5937 5937 5937 5938 5938 5938 5938 5938 5938 5937 5936 5936 5935 5935 5934 5933 5932 5931
5920 5921 5922 5923 5924 5925 5926 5927 5928 5929 5930 5931 5932 5933 5934 5935 5935 5936 5936 5936 5936 5936 5936 5936 5936 5936 5936 5937 5937 5937 5937 5937 5937 5936 5936 5935 5935 5934 5934 5933 5932 5931
5919 5920 5921 5922 5922 5923 5924 5926 5927 5928 5929 5930 5930 5931 5932 5933 5934 5934 5935 5935 5935 5935 5935 5935 5935 5935 5935 5935 5936 5936 5936 5936 5936 5936 5935 5935 5934 5934 5933 5933 5932 5931
5917 5918 5919 5920 5920 5921 5923 5924 5925 5926 5927 5928 5929 5929 5931 5932 5932 5933 5933 5934 5934 5934 5933 5933 5933 5933 5934 5934 5935 5935 5935 5935 5935 5935 5934 5934 5934 5933 5933 5932 5931 5931
5916 5917 5917 5918 5919 5920 5921 5922 5923 5924 5925 5926 5927 5928 5929 5930 5931 5931 5931 5932 5932 5932 5932 5932 5932 5932 5932 5933 5933 5934 5934 5934 5934 5934 5933 5933 5933 5933 5932 5931 5931 5930
5914 5915 5915 5916 5917 5918 5919 5920 5921 5922 5923 5923 5925 5926 5927 5928 5929 5929 5929 5930 5930 5930 5930 5930 5930 5930 5931 5931 5932 5932 5933 5933 5933 5933 5933 5932 5932 5931 5931 5931 5930 5930
5912 5912 5913 5914 5915 5916 5917 5918 5919 5919 5920 5921 5922 5923 5924 5925 5926 5927 5927 5927 5928 5928 5928 5928 5928 5928 5929 5930 5930 5931 5931 5931 5931 5931 5931 5931 5931 5930 5930 5930 5929 5929
5909 5910 5911 5912 5913 5914 5914 5915 5916 5917 5918 5919 5920 5920 5922 5923 5923 5924 5924 5925 5925 5926 5926 5926 5926 5926 5927 5928 5928 5928 5929 5929 5930 5930 5930 5930 5930 5929 5929 5929 5929 5928
5907 5908 5909 5910 5911 5912 5912 5912 5913 5914 5915 5916 5917 5918 5919 5920 5920 5921 5921 5922 5923 5923 5923 5923 5923 5923 5924 5925 5926 5926 5927 5927 5928 5928 5928 5929 5929 5928 5928 5928 5928 5927
5905 5906 5907 5908 5909 5909 5909 5910 5910 5911 5912 5913 5914 5915 5916 5917 5917 5918 5918 5919 5920 5920 5920 5920 5920 5921 5921 5923 5923 5924 5925 5925 5926 5926 5927 5927 5927 5927 5927 5926 5926 5926
5903 5904 5905 5905 5906 5906 5907 5907 5907 5908 5909 5910 5910 5911 5912 5913 5914 5915 5916 5916 5916 5916 5917 5917 5918 5918 5919 5920 5921 5922 5922 5923 5924 5924 5925 5925 5926 5925 5925 5924 5924 5924
5900 5901 5902 5902 5903 5904 5904 5904 5905 5905 5906 5907 5907 5908 5909 5910 5911 5912 5912 5913 5913 5913 5914 5914 5915 5916 5917 5918 5919 5920 5920 5921 5921 5922 5922 5923 5923 5923 5923 5923 5922 5922
5898 5898 5899 5900 5900 5901 5901 5902 5902 5903 5903 5904 5904 5905 5906 5907 5908 5908 5909 5910 5910 5910 5911 5911 5912 5913 5914 5915 5916 5918 5918 5918 5919 5919 5920 5920 5921 5921 5921 5921 5920 5919
5895 5896 5897 5897 5898 5899 5899 5900 5900 5901 5901 5901 5902 5903 5903 5904 5905 5906 5906 5907 5908 5908 5908 5909 5910 5911 5913 5913 5914 5915 5916 5916 5916 5916 5917 5918 5918 5919 5919 5919 5918 5917
5892 5894 5894 5895 5896 5897 5897 5898 5898 5898 5899 5900 5900 5901 5901 5902 5903 5903 5904 5905 5906 5906 5906 5907 5908 5909 5911 5911 5912 5912 5913 5913 5913 5913 5914 5915 5915 5916 5916 5916 5916 5915
5890 5891 5892 5894 5894 5895 5896 5896 5896 5897 5898 5898 5899 5899 5900 5901 5901 5902 5903 5903 5904 5904 5905 5905 5907 5907 5908 5909 5909 5909 5910 5910 5910 5910 5911 5911 5912 5913 5913 5913 5913 5912
5888 5889 5890 5892 5892 5893 5894 5895 5895 5896 5897 5897 5898 5898 5898 5899 5900 5901 5901 5902 5902 5903 5903 5904 5904 5905 5906 5906 5906 5906 5907 5907 5907 5907 5907 5908 5909 5910 5910 5910 5910 5910
5886 5887 5888 5890 5890 5891 5892 5892 5893 5894 5895 5895 5896 5896 5897 5898 5899 5899 5900 5900 5901 5901 5901 5902 5902 5903 5903 5903 5903 5903 5903 5903 5903 5903 5904 5905 5906 5907 5907 5907 5907 5907
5883 5885 5886 5887 5888 5888 5889 5890 5891 5892 5892 5893 5893 5894 5895 5896 5897 5897 5898 5898 5899 5899 5899 5900 5900 5901 5901 5901 5901 5901 5900 5900 5900 5900 5900 5901 5902 5903 5903 5903 5903 5903
5881 5882 5883 5884 5885 5885 5886 5887 5888 5889 5890 5890 5891 5892 5893 5893 5894 5895 5895 5896 5896 5897 5897 5897 5898 5898 5898 5898 5898 5897 5897 5896 5896 5896 5897 5898 5898 5899 5899 5899 5899 5899
5878 5880 5880 5881 5882 5883 5884 5885 5885 5886 5887 5888 5888 5889 5890 5890 5891 5892 5892 5893 5893 5893 5894 5894 5895 5895 5895 5895 5894 5894 5893 5893 5893 5893 5893 5894 5894 5895 5895 5895 5894 5894
5876 5876 5877 5878 5879 5880 5881 5882 5883 5883 5884 5884 5885 5886 5886 5887 5888 5888 5889 5889 5889 5889 5890 5890 5890 5890 5891 5891 5891 5890 5889 5889 5889 5889 5889 5890 5890 5890 5890 5890 5890 5890
5873 5873 5874 5875 5876 5877 5878 5879 5879 5880 5880 5881 5881 5882 5883 5883 5884 5884 5884 5884 5885 5885 5885 5885 5885 5885 5886 5886 5886 5886 5884 5884 5884 5884 5884 5885 5885 5885 5886 5886 5885 5885
5869 5870 5871 5872 5873 5874 5874 5875 5876 5876 5876 5877 5877 5877 5878 5878 5878 5879 5880 5880 5880 5880 5880 5880 5880 5880 5881 5882 5882 5881 5880 5879 5878 5878 5879 5879 5879 5879 5880 5880 5879 5878
5866 5867 5868 5869 5870 5870 5870 5871 5872 5872 5872 5872 5873 5873 5873 5873 5873 5874 5875 5875 5875 5875 5875 5875 5875 5875 5876 5877 5877 5877 5876 5874 5872 5872 5873 5873 5873 5874 5873 5872 5871 5871